Regional Weather Roundup
Issued by NWS Newport/Morehead, NC

Home | Current Version | Previous Version | Text Only | Print | Product List | Glossary On
Versions: 1 2 3 4 5 6 7 8 9 10 11 12 13 14 15 16 17 18 19 20 21 22 23 24 25 26 27 28 29 30 31 32 33 34 35 36 37 38 39 40 41 42 43 44 45 46 47 48 49 50
000
ASUS42 KMHX 191322
RWRMHX
WEATHER ROUNDUP FOR EASTERN NORTH CAROLINA
NATIONAL WEATHER SERVICE NEWPORT/MOREHEAD CITY NC
800 AM EST FRI DEC 19 2014

NOTE: "FAIR" INDICATES FEW OR NO CLOUDS BELOW 12,000 FEET
WITH NO SIGNIFICANT WEATHER AND/OR OBSTRUCTIONS TO VISIBILITY

NCZ015>017-031-032-045>047-102-103-191400-
NORTH COAST

CITY           SKY/WX    TMP DP  RH WIND       PRES   REMARKS
EDENTON          N/A     33  31  91 N5        30.15R
ELIZABETH CITY CLEAR     39  30  70 N8        30.15R
KITTY HAWK     SUNNY     39  33  80 N3        30.12R
MANTEO         CLEAR     39  34  82 N5        30.13R

$$

NCZ045>047-081-094-103-104-191400-
CENTRAL COAST

CITY           SKY/WX    TMP DP  RH WIND       PRES   REMARKS
FRISCO         CLEAR     43  36  76 VRB3      30.12R
SWANQUARTER      N/A     39 N/A N/A N1        30.09S

$$

NCZ095-097-098-100-101-191400-
SOUTHERN COAST

CITY           SKY/WX    TMP DP  RH WIND       PRES   REMARKS
BEAUFORT       CLEAR     42  36  79 NW7       30.13S
CEDAR ISLAND     N/A     45 N/A N/A NW8       30.15S
JACKSONVILLE   CLEAR     33  31  92 CALM      30.14R
PINEY ISLAND   SUNNY     43  35  73 NW7       30.12S
WILMINGTON     CLEAR     35  33  92 CALM      30.14R


$$

NCZ011>013-027>030-043-044-078>080-089-090>093-098-191400-
COASTAL PLAIN

CITY           SKY/WX    TMP DP  RH WIND       PRES   REMARKS
AHOSKIE        CLEAR     28  26  92 CALM      30.17R
CLINTON        PTCLDY    35  35 100 CALM      30.16R
ELIZABETHTOWN  CLEAR     37  32  84 CALM      30.15R
GOLDSBORO      CLOUDY    37  37  98 CALM      30.14R
GREENVILLE     PTCLDY    34  32  93 CALM      30.16R
HAVELOCK       CLEAR     37  32  82 VRB6      30.15R
KENANSVILLE    PTCLDY    35  35  99 CALM      30.16R
KINSTON        CLOUDY    37  34  87 CALM      30.16R
NEW BERN       CLEAR     34  31  88 CALM      30.15R
RICHLANDS      PTCLDY    34  30  86 CALM      30.15S
ROCKY MOUNT    CLEAR     33  30  88 CALM      30.16R
WASHINGTON     CLEAR     31  29  94 CALM      30.15R
WHITEVILLE     CLEAR     33  32  94 CALM      30.14R

$$

AMZ130-135-150-152-154-156-158-170-250-252-270-ANZ085-086-088-633-658-670-191400-
MARINE OBSERVATIONS

STATION/POSITION TIME  TEMP    WIND        PRES    WAVE   SWELL
                       AIR SEA DIR/SP/G            HT/PER HT/PER
                 (UTC) (F)     (DEG/KT/KT) (MB)    (FT/S) (FT/S)
CHESAPEAKE LIGHT 1300   39     340/ 16/ 17 1020.9
64 E VA BEACH    1300   44 55  320/ 14/ 17 1019.0    3/ 5   2/10
DUCK             1300   41 47  330/ 11/ 13 1019.4
2 E DUCK         1300      47                N/A     2/ 5
10 NE DUCK       1300      51                N/A     2/11   2/11
OREGON INLET     1300   42 50  320/  5/  6 1020.0
13E OREGON INLT  1300      53                N/A     2/ 5   2/12
HATTERAS CG      1300   45 54  330/  9/ 10 1020.1
DIAMOND BUOY     1300   50                 1019.9    2/ 8
17 S OCRACOKE    NOT AVBL
CAPE LOOKOUT     1300   45     350/  7/  9 1020.0
BEAUFORT LAB     1300   44 53  340/  4/  8 1019.2
30 SE NEW RIVER  1300   52 61  350/ 10/ 12 1020.4    2/ 8   2/ 8
5 SE WRIGHTSVLE  NOT AVBL
225 S CAPE HAT   1203   69 72  330/ 10/ 12 1018.2    3/ 5   2/ 5
41 SE CHARLESTON 1300   61 72  330/  6/  8 1019.5    1/10   2/10

$$


USA.gov is the U.S. government's official web portal to all federal, state and local government web resources and services.